Location: Observatoire
(46.1952°N, 5.3391°E)
Time: 04:15:41
(UTC+01:00)

Altair - Pass Details

Date: 21 February 2026
Orbit: 1502 x 1682 km, 47.2° (Epoch: 7 March)

Event Time Altitude Azimuth Distance (km) Brightness Sun altitude
Rises 08:53:39 0° 285° (WNW) 4,672 9.4 12.2°
Reaches altitude 10° 08:56:38 10° 285° (WNW) 3,706 9.0 12.7°
Maximum altitude 09:06:02 80° 200° (SSW) 1,595 7.9 14.1°
Drops below altitude 10° 09:15:47 10° 116° (ESE) 3,839 12.0 15.5°
Sets 09:18:56 0° 115° (ESE) 4,847 11.8 16.0°
